Showing default

PREFIRE-2, 59881

Orbit data source: Space-Track

PREFIRE-2, 59881 is a payload satellite owned by JPL (US) in SSO that was launched on Sat, 25 May 2024 UTC via an ELECTRON launch vehicle from the Rocket Lab Launch Complex (RLLC). Payload-class satellites include a variety of spacecraft equipped with specific instruments for various scientific and technological missions. These include communications satellites like Starlink; space stations such as the ISS; scientific satellites like the Hubble; Earth observation satellites from companies like Planet Labs, Umbra, and HawkEye 360; GPS; miniature CubeSats for education and research; and military/defense satellites.

Loading next visibility...
Identifier
59881, 2024-099A
Orbit
SSO
Country
Flag of USUS
Related business
Manufacturer
JPL
Mission
Operational spacecraft
Bus & Motor
CUBESAT 6U, Unknown motor
Mass
~10 kg wet, ~10 kg dry
Launch date (UTC)
2024-05-25 (1 year ago)
Launch vehicle
ELECTRON
Launch site
Rocket Lab Launch Complex (RLLC)
Object type
Payload
Rocket body
Debris
Shape & HBR
Unknown
Radar Cross Section
Medium (>0.1 m² and <1 m²)

Expand to show TLE details & history
Last TLE update: 14 hours ago

TLE from 14 hours ago
0 PREFIRE-2
1 59881U 24099A   25257.58632622  .00003182  00000-0  15859-3 0  9995
2 59881  97.4399 113.2774 0014579  88.6130 271.6774 15.18184693 72279
Epoch: 2025-09-14T14:04Z
TLE epoch observation values (Epoch: 2025-09-14T14:04:18.585Z)
Latitude
-0.00003°
Longitude
-91.60324°
Altitude
514.134 km
Speed
7.607 km/s
True Right ascension
07h 33m 06s
True Declination
0° 00' 00"
Sunlit
Object was in daylight at epoch
Visualization orbit readout
Latitude
Unknown
Longitude
Unknown
Altitude
Unknown
Speed
Unknown
Apparent Right ascension
Unknown
Apparent Declination
Unknown
Sunlit
N/A
Visualization observer readout
Local Sidereal Time
20:44:41
Azimuth
Unknown
Elevation
Unknown
Doppler factor
Unknown
Orbital elements
Apogee altitude
518.336 km
Perigee altitude
498.257 km
Semi-major axis
6,886.434 km
Eccentricity
0.00146
Inclination
97.4399°
RAAN
113.2774°
Arg. of periapsis
88.613°
True anomaly
271.5104°
Mean anomaly
271.6774°
Eccentric anomaly
271.5939°
Mean motion
3.79797 °/min
Orbital period
94.79 mins
BSTAR
0.00015859
Loading maneuver chart data...
Computing Atmospheric mass density...
Loading historical data...
Loading historical data...
Loading historical data...
Loading historical data...
Loading historical data...
Loading historical data...
Loading historical data...
Other satellites on launch #99 in the year 2024 (2024-05-25 UTC)

Documentation

Showing up to 5 results
|